Regional Weather Roundup
Issued by NWS Glasgow, MT

Home | Current Version | Previous Version | Text Only | Print | Product List | Glossary On
Versions: 1 2 3 4 5 6 7 8 9 10 11 12 13 14 15 16 17 18 19 20 21 22 23 24 25 26 27 28 29 30 31 32 33 34 35 36 37 38 39 40 41 42 43 44 45 46 47 48 49 50
000
ASUS45 KGGW 231015
RWRGGW
HOURLY WEATHER ROUNDUP FOR NORTHEAST MONTANA
NATIONAL WEATHER SERVICE GLASGOW MONTANA
400 AM MDT SAT MAY 23 2015

NOTE: "FAIR" INDICATES FEW OR NO CLOUDS BELOW 12,000 FEET WITH NO
SIGNIFICANT WEATHER AND/OR OBSTRUCTIONS TO VISISBILITY.

NORTHEAST MONTANA


CITY           SKY/WX    TMP DP  RH WIND       PRES   REMARKS
GLASGOW        MOCLDY    55  42  61 E12       30.03S
WOLF POINT     PTCLDY    52  41  66 E8        30.07R
JORDAN           N/A     53  44  71 E6        30.01R
WINNETT          N/A     52  44  74 E2          N/A
SIDNEY         CLEAR     46  37  71 CALM      30.09R
GLENDIVE       CLEAR     45  37  76 NE7       30.07S
MALTA            N/A     58  49  72 NE3         N/A

FORT PECK REPORTS


CITY           SKY/WX    TMP DP  RH WIND       PRES   REMARKS
FORT PECK        N/A     56  43  61 E12         N/A
THE PINES        N/A     56  43  61 E3          N/A

SOUTHEAST MONTANA


CITY           SKY/WX    TMP DP  RH WIND       PRES   REMARKS
BILLINGS       CLOUDY    51  45  79 N5        29.96R
MILES CITY     PTCLDY    51  40  65 SE10      30.00R
BAKER          CLEAR     40  37  89 E7        30.06R
LIVINGSTON     CLOUDY    50  47  89 CALM      29.98S

CENTRAL MONTANA


CITY           SKY/WX    TMP DP  RH WIND       PRES   REMARKS
HAVRE          CLOUDY    56  46  69 E7        30.00R
LEWISTOWN      CLOUDY    49  46  90 SW7       30.01S
GREAT FALLS    PTCLDY    50  43  77 E8        30.00R
CUT BANK       CLEAR     39  35  86 NW6       30.05R
HELENA         PTCLDY    52  43  71 W8        29.99R
BUTTE          MOCLDY    40  37  89 S6        30.02R
BOZEMAN        MOCLDY    49  43  80 W5        29.99R

WESTERN MONTANA


CITY           SKY/WX    TMP DP  RH WIND       PRES   REMARKS
MISSOULA       MOCLDY    50  39  66 CALM      29.98R
KALISPELL      NOT AVBL

NORTH DAKOTA


CITY           SKY/WX    TMP DP  RH WIND       PRES   REMARKS
WILLISTON      CLEAR     46  38  73 NE5       30.11R
DICKINSON      PTCLDY    40  36  86 E7        30.09R
MINOT          PTCLDY    55  38  52 SW10      30.10S
BISMARCK       PTCLDY    43  40  89 SE6       30.16S

SOUTHERN SASKATCHEWAN


CITY           SKY/WX    TMP DP  RH WIND       PRES   REMARKS
REGINA         PTCLDY    48  37  66 E9        30.10R
ESTEVAN        MOCLDY    54  41  62 S6        30.11S
SWIFT CURRENT  CLEAR     48  34  57 SE6       30.08R




USA.gov is the U.S. government's official web portal to all federal, state and local government web resources and services.